Location: Centerville
(32.8776°N, 96.6203°W)
Time: 05:43:21
(UTC+00:00)

Cosmos 2333 - Pass Details

Date: 17 June 2021
Orbit: 832 x 864 km, 70.9° (Epoch: 29 July)

Event Time Altitude Azimuth Distance (km) Brightness Sun altitude
Exits shadow 03:45:02 45° 146° (SSE) 1,152 4.4 -21.7°
Maximum altitude 03:46:14 53° 106° (ESE) 1,042 4.3 -21.9°
Drops below altitude 10° 03:51:48 10° 31° (NNE) 2,492 6.9 -22.6°
Sets 03:54:18 0° 27° (NNE) 3,427 7.7 -22.9°
